[[{"header":{"parameterUnit":"m.s-1","parameterCategory":1,"la1":30.2991,"la2":30.254,"lo1":-89.0895,"lo2":-89.0444,"dy":0.0017,"dx":0.0017,"nx":28,"ny":28,"refTime":"2023-08-01T21:00:00:Z","depth":0,"parameterNumber":2,"parameterNumberName":"U-component_of_WINDS"},"data":[0,0,0,0,0,0,0,0,0,0,0,0,0,0,0,0,0,0,0,0,0,0,0,0,0,0,0,0,0,0,0,0,0,0,0,0,0,0,0,0,0,0,0,0,0,0,0,0,0,0,0,0,0,0,0,0,0,0,-0.381,-0.381,0,-0.3758,-0.3757,-0.3757,-0.3738,-0.3738,-0.3738,-0.3738,-0.3683,-0.3681,-0.368,0,0,0,0,0,0,0,0,0,0,0,0,0,-0.3892,-0.3891,-0.381,-0.381,-0.3809,-0.3758,-0.3757,-0.3757,-0.3738,-0.3738,-0.3738,-0.3738,-0.3683,-0.3682,-0.368,0,0,0,0,0,0,0,0,0,0,0,0,0,-0.385,-0.3891,-0.381,-0.3794,-0.3792,-0.3758,-0.3757,-0.3756,-0.3738,-0.3738,-0.3738,-0.3739,-0.3684,-0.3682,-0.3679,-0.3658,0,0,-0.3672,-0.3671,0,0,0,0,0,0,0,0,-0.3852,-0.3847,-0.3797,-0.3795,-0.3792,-0.3755,-0.3766,-0.3723,-0.3738,-0.3758,-0.3738,-0.3739,-0.3706,-0.3702,-0.3692,-0.3656,-0.3653,-0.3671,-0.367,-0.3669,-0.3668,0,0,0,0,0,0,0,-0.3855,-0.3849,-0.379,-0.3796,-0.3793,-0.3788,-0.3782,-0.3758,-0.3731,-0.3756,-0.3755,-0.3749,-0.3705,-0.3694,-0.369,-0.3653,-0.3672,-0.3669,-0.3668,-0.3667,-0.3596,-0.3596,0,0,0,0,0,0,-0.3861,-0.3852,-0.3791,-0.3788,-0.3824,-0.3786,-0.378,-0.3766,-0.3732,-0.3726,-0.3749,-0.3748,-0.3698,-0.3693,-0.3688,-0.3661,-0.3669,-0.3667,-0.3665,-0.3597,-0.3596,-0.3596,0,0,0,0,0,0,-0.3863,-0.3856,-0.3793,-0.3819,-0.3811,-0.3785,-0.377,-0.3765,-0.3754,-0.3726,-0.3721,-0.3742,-0.3698,-0.3692,-0.3666,-0.3659,-0.3666,-0.3663,-0.3597,-0.3597,-0.3596,-0.3607,0,0,0,0,0,0,-0.3866,-0.3857,-0.3849,-0.3819,-0.381,-0.3773,-0.3769,-0.3764,-0.375,-0.3749,-0.3718,-0.3714,-0.3698,-0.367,-0.3664,-0.3656,-0.3661,-0.3598,-0.3597,-0.3596,-0.3607,-0.3607,-0.3607,0,0,0,0,0,-0.3869,-0.3854,-0.3849,-0.3842,-0.38,-0.3772,-0.3767,-0.3749,-0.375,-0.3741,-0.3723,-0.3715,-0.3661,-0.3667,-0.366,-0.3651,-0.3598,-0.3597,-0.3596,-0.3608,-0.3607,-0.3607,0,0,0,0,0,0,-0.3883,-0.385,-0.3844,-0.3819,-0.3799,-0.3769,-0.3758,-0.375,-0.3728,-0.3728,-0.3707,-0.37,-0.3676,-0.3661,-0.3669,-0.3629,-0.3629,-0.3627,-0.364,-0.3639,-0.3639,-0.3643,-0.3659,0,0,0,0,0,-0.3884,-0.3865,-0.3836,-0.3817,-0.3808,-0.3785,-0.3772,-0.3761,-0.3738,-0.3729,-0.3709,-0.3687,-0.3666,-0.3652,-0.363,-0.3605,-0.3598,-0.3596,-0.3596,-0.3595,-0.3594,-0.3579,-0.3578,-0.3593,-0.3593,-0.3593,0,0,-0.3884,-0.3864,-0.3853,-0.382,-0.3803,-0.3783,-0.3777,-0.3757,-0.3742,-0.3726,-0.3701,-0.3685,-0.3659,-0.3634,-0.3622,-0.3621,-0.3588,-0.3594,-0.3595,-0.3593,-0.3578,-0.3577,-0.3575,-0.3593,-0.3593,-0.3593,0,0,-0.3875,-0.3858,-0.384,-0.3823,-0.3797,-0.3782,-0.3778,-0.3749,-0.3739,-0.3713,-0.37,-0.3682,-0.3645,-0.3627,-0.3613,-0.3597,-0.3589,-0.3591,-0.3589,-0.3576,-0.3574,-0.3573,-0.3567,-0.3566,-0.3589,-0.3589,-0.3589,0,-0.3879,-0.3849,-0.3832,-0.3812,-0.3798,-0.3783,-0.3764,-0.3748,-0.3717,-0.3707,-0.3706,-0.366,-0.3641,-0.3611,-0.3608,-0.3597,-0.3591,-0.3594,-0.3576,-0.3575,-0.3573,-0.3568,-0.3565,-0.359,-0.3589,-0.3589,-0.3589,0,-0.3855,-0.3835,-0.3823,-0.3794,-0.3778,-0.3759,-0.3738,-0.3724,-0.3714,-0.3699,-0.3673,-0.365,-0.3624,-0.3616,-0.3605,-0.3584,-0.3584,-0.358,-0.358,-0.3573,-0.3567,-0.3564,-0.359,-0.359,-0.359,-0.359,0,0,-0.3854,-0.3815,-0.3811,-0.3797,-0.3767,-0.3751,-0.3731,-0.3706,-0.3694,-0.3673,-0.3655,-0.3624,-0.362,-0.3604,-0.3592,-0.358,-0.3568,-0.3577,-0.3576,-0.3576,-0.3543,-0.3547,-0.3544,-0.3562,-0.3562,-0.3562,-0.3546,0,-0.384,-0.3805,-0.3788,-0.376,-0.3741,-0.3726,-0.3709,-0.3688,-0.3674,-0.3655,-0.3638,-0.3616,-0.3613,-0.3603,-0.3591,-0.3572,-0.3561,-0.3573,-0.3545,-0.3545,-0.3552,-0.3541,-0.3545,-0.3531,-0.3543,-0.3543,-0.3542,0,-0.382,-0.38,-0.3769,-0.3742,-0.3733,-0.3718,-0.3693,-0.3675,-0.3652,-0.3642,-0.3624,-0.3612,-0.359,-0.3591,-0.356,-0.3569,-0.3557,-0.3546,-0.3545,-0.3541,-0.3543,-0.3537,-0.3526,-0.3524,-0.3539,-0.3539,-0.3539,0,-0.3822,-0.3786,-0.3764,-0.3752,-0.372,-0.3709,-0.3695,-0.3672,-0.3658,-0.3636,-0.3626,-0.3602,-0.3589,-0.357,-0.3552,-0.3554,-0.3523,-0.3522,-0.3513,-0.3514,-0.3507,-0.3508,-0.3493,-0.35,-0.35,-0.35,-0.35,0,-0.3809,-0.3791,-0.3764,-0.375,-0.3729,-0.371,-0.369,-0.3675,-0.3654,-0.3636,-0.3622,-0.3606,-0.3583,-0.3563,-0.3549,-0.3525,-0.3519,-0.351,-0.3507,-0.3512,-0.3513,-0.3503,-0.3503,-0.3499,-0.3499,-0.3499,-0.3499,0,-0.3808,-0.3789,-0.3763,-0.3734,-0.3727,-0.3713,-0.3688,-0.3673,-0.3658,-0.3636,-0.3629,-0.3605,-0.3581,-0.3561,-0.353,-0.352,-0.3496,-0.3492,-0.3504,-0.3502,-0.3494,-0.3495,-0.3473,-0.3469,-0.3478,-0.3478,-0.3478,0,-0.3801,-0.3786,-0.3756,-0.3744,-0.373,-0.371,-0.3695,-0.3676,-0.3661,-0.3633,-0.3622,-0.3598,-0.3577,-0.354,-0.3519,-0.3495,-0.349,-0.3484,-0.3486,-0.3492,-0.349,-0.3491,-0.3489,-0.3484,-0.3484,-0.3484,-0.3484,0,-0.379,-0.3781,-0.3761,-0.3738,-0.3721,-0.3701,-0.3681,-0.3672,-0.3649,-0.3633,-0.3609,-0.3593,-0.3561,-0.3537,-0.3511,-0.3495,-0.3485,-0.3483,-0.348,-0.3484,-0.3492,-0.3488,-0.3504,-0.3484,-0.3484,-0.3484,-0.3484,-0.3484,-0.3785,-0.3772,-0.3749,-0.3727,-0.371,-0.3691,-0.3676,-0.3659,-0.3639,-0.3612,-0.3602,-0.3577,-0.3553,-0.3517,-0.3502,-0.3482,-0.3481,-0.3476,-0.3475,-0.3474,-0.3475,-0.3496,-0.3477,-0.3477,-0.3477,-0.3477,-0.3477,0,-0.3774,-0.3758,-0.3738,-0.3711,-0.3693,-0.3686,-0.3663,-0.3649,-0.3628,-0.3607,-0.3587,-0.3559,-0.3536,-0.3513,-0.3488,-0.3477,-0.3472,-0.3471,-0.3471,-0.3468,-0.3477,-0.3483,-0.3476,-0.3476,-0.3476,-0.3476,-0.3476,-0.3476,-0.3766,-0.3743,-0.3731,-0.37,-0.3684,-0.366,-0.3648,-0.3631,-0.3614,-0.3584,-0.3564,-0.355,-0.3528,-0.3502,-0.3479,-0.3473,-0.3465,-0.3465,-0.3458,-0.3467,-0.3467,-0.3468,-0.3473,-0.3464,-0.3464,-0.345,-0.345,-0.345]},{"header":{"parameterUnit":"m.s-1","parameterCategory":1,"la1":30.2991,"la2":30.254,"lo1":-89.0895,"lo2":-89.0444,"dy":0.0017,"dx":0.0017,"nx":28,"ny":28,"refTime":"2023-08-01T21:00:00:Z","depth":0,"parameterNumber":3,"parameterNumberName":"V-component_of_WINDS"},"data":[0,0,0,0,0,0,0,0,0,0,0,0,0,0,0,0,0,0,0,0,0,0,0,0,0,0,0,0,0,0,0,0,0,0,0,0,0,0,0,0,0,0,0,0,0,0,0,0,0,0,0,0,0,0,0,0,0,0,1.6003,1.6004,0,1.603,1.603,1.603,1.6043,1.6043,1.6043,1.6043,1.6068,1.6069,1.6069,0,0,0,0,0,0,0,0,0,0,0,0,0,1.5961,1.5961,1.6003,1.6004,1.6004,1.603,1.603,1.603,1.6043,1.6043,1.6043,1.6043,1.6068,1.6069,1.6069,0,0,0,0,0,0,0,0,0,0,0,0,0,1.5982,1.5962,1.6003,1.6014,1.6015,1.603,1.603,1.603,1.6043,1.6043,1.6043,1.6043,1.6067,1.6068,1.6069,1.6075,0,0,1.6072,1.6073,0,0,0,0,0,0,0,0,1.5981,1.5984,1.6012,1.6013,1.6014,1.6033,1.6024,1.6045,1.6043,1.6032,1.6043,1.6043,1.6056,1.6058,1.6063,1.6076,1.6077,1.6072,1.6073,1.6073,1.6074,0,0,0,0,0,0,0,1.598,1.5983,1.6014,1.6012,1.6014,1.6016,1.6019,1.6028,1.6044,1.6033,1.6034,1.6037,1.6057,1.6062,1.6064,1.6078,1.6072,1.6073,1.6074,1.6074,1.6095,1.6095,0,0,0,0,0,0,1.5977,1.5981,1.6013,1.6015,1.5997,1.6017,1.602,1.6027,1.6044,1.6046,1.6037,1.6038,1.606,1.6063,1.6065,1.6072,1.6073,1.6074,1.6075,1.6095,1.6095,1.6095,0,0,0,0,0,0,1.5976,1.598,1.6012,1.5998,1.6003,1.6017,1.6025,1.6028,1.6033,1.6047,1.6049,1.604,1.606,1.6063,1.6072,1.6073,1.6075,1.6076,1.6096,1.6095,1.6095,1.6086,0,0,0,0,0,0,1.5975,1.5979,1.5982,1.5998,1.6003,1.602,1.6025,1.6028,1.6035,1.6036,1.605,1.6052,1.6061,1.6071,1.6073,1.6074,1.6076,1.6096,1.6095,1.6095,1.6086,1.6086,1.6085,0,0,0,0,0,1.5973,1.5979,1.5983,1.5986,1.6008,1.602,1.6023,1.6033,1.6035,1.6038,1.6046,1.6052,1.6072,1.6072,1.6075,1.6076,1.6096,1.6096,1.6095,1.6087,1.6086,1.6085,0,0,0,0,0,0,1.5962,1.5981,1.5986,1.5997,1.6007,1.6022,1.6026,1.6032,1.6041,1.6042,1.6053,1.6056,1.6064,1.6071,1.607,1.6081,1.6084,1.6085,1.6077,1.6076,1.6075,1.6073,1.6077,0,0,0,0,0,1.5961,1.597,1.5986,1.5994,1.5999,1.6012,1.6017,1.6024,1.6035,1.6039,1.6049,1.6058,1.6066,1.6071,1.608,1.6087,1.609,1.6089,1.6089,1.6088,1.6088,1.6091,1.6091,1.6095,1.6095,1.6095,0,0,1.5959,1.597,1.5976,1.5992,1.6001,1.6009,1.6015,1.6024,1.603,1.604,1.6049,1.6056,1.6067,1.6075,1.6079,1.6081,1.6088,1.6088,1.6087,1.6088,1.6091,1.6091,1.609,1.6095,1.6095,1.6095,0,0,1.5959,1.5969,1.5977,1.5985,1.5998,1.6006,1.6008,1.6022,1.6027,1.6037,1.6044,1.6051,1.6065,1.6072,1.6078,1.6079,1.6084,1.6081,1.6078,1.608,1.608,1.608,1.6079,1.6079,1.6081,1.6081,1.6081,0,1.5955,1.5968,1.5979,1.5988,1.5994,1.6004,1.601,1.6018,1.6032,1.6036,1.6038,1.6056,1.6064,1.6073,1.6073,1.6077,1.6079,1.608,1.6079,1.6079,1.6079,1.6079,1.6079,1.6081,1.6081,1.6081,1.6081,0,1.5962,1.5971,1.5975,1.5989,1.5996,1.6003,1.6014,1.602,1.6025,1.6033,1.6041,1.6051,1.6061,1.6064,1.607,1.6073,1.6074,1.6077,1.6081,1.6078,1.6078,1.6078,1.608,1.608,1.608,1.6081,0,0,1.5957,1.5976,1.5977,1.5983,1.5997,1.6004,1.6011,1.6021,1.6025,1.6034,1.604,1.6051,1.6054,1.606,1.6067,1.6069,1.6068,1.6072,1.6073,1.6071,1.6071,1.6068,1.6068,1.6071,1.6071,1.6071,1.607,0,1.5959,1.5973,1.5982,1.5991,1.5999,1.6007,1.6013,1.6022,1.6028,1.6035,1.6042,1.605,1.6054,1.6057,1.606,1.6067,1.6068,1.6068,1.6075,1.6075,1.6072,1.6068,1.6065,1.6063,1.607,1.607,1.607,0,1.5963,1.5972,1.5982,1.5994,1.5998,1.6003,1.6012,1.6019,1.6028,1.6033,1.6039,1.6045,1.6051,1.6054,1.6062,1.6061,1.6065,1.6069,1.6069,1.607,1.6072,1.6068,1.6063,1.6063,1.607,1.607,1.607,0,1.5957,1.5972,1.598,1.5985,1.5999,1.6002,1.6008,1.6018,1.6023,1.603,1.6033,1.6042,1.6046,1.6052,1.6059,1.6061,1.6066,1.607,1.6069,1.6069,1.607,1.607,1.6065,1.6073,1.6073,1.6073,1.6073,0,1.5958,1.5964,1.5977,1.5982,1.5988,1.5998,1.6004,1.601,1.6018,1.6023,1.6031,1.6035,1.6046,1.6051,1.6057,1.6062,1.6064,1.6067,1.6069,1.6066,1.6066,1.6069,1.6069,1.6073,1.6073,1.6073,1.6073,0,1.5953,1.5963,1.5972,1.5984,1.5987,1.5991,1.6001,1.6005,1.6012,1.6018,1.602,1.603,1.6037,1.6045,1.6055,1.6059,1.6063,1.6065,1.606,1.6061,1.6059,1.6059,1.6056,1.6056,1.6064,1.6064,1.6064,0,1.5953,1.5958,1.597,1.5975,1.598,1.5987,1.5992,1.6001,1.6006,1.6016,1.6019,1.6026,1.6032,1.6042,1.605,1.6056,1.6059,1.6057,1.606,1.6057,1.6058,1.6057,1.6057,1.6056,1.6056,1.6056,1.6056,0,1.5952,1.5956,1.5963,1.5971,1.5977,1.5984,1.5991,1.5994,1.6004,1.6009,1.6016,1.6021,1.603,1.6037,1.6044,1.6049,1.6054,1.6055,1.6055,1.6053,1.6049,1.605,1.6057,1.6055,1.6055,1.6055,1.6055,1.6056,1.5949,1.5953,1.5962,1.5969,1.5975,1.5982,1.5986,1.5993,1.5999,1.6007,1.6012,1.6018,1.6026,1.6036,1.6041,1.6045,1.6047,1.6048,1.6048,1.6048,1.6046,1.6049,1.6047,1.6047,1.6047,1.6047,1.6047,0,1.5947,1.5953,1.596,1.5969,1.5974,1.5979,1.5986,1.599,1.5996,1.6003,1.6009,1.6016,1.6022,1.603,1.6036,1.6038,1.604,1.6039,1.6039,1.604,1.6045,1.6044,1.6037,1.6037,1.6037,1.6037,1.6037,1.6037,1.5947,1.5953,1.5958,1.5967,1.5972,1.5979,1.5983,1.5988,1.5993,1.6001,1.6006,1.6011,1.6018,1.6025,1.603,1.6032,1.6034,1.6032,1.6035,1.6039,1.604,1.6041,1.604,1.6033,1.6032,1.6029,1.6029,1.6029]}]]